Hourly Data Report for October 21, 2016

All times are specified in Local Standard Time (LST). Add 1 hour to adjust for Daylight Saving Time where and when it is observed.

RESOLUTE BAY A
NUNAVUT

74°43'01.000" N
94°58'10.000" W
67.70 m
2403498
71924
YRB

Download Data

Hourly Data (October 2016)
Hourly Data Report for October 21, 2016
Temp Definition
°C
Dew Point Temp Definition
°C
Rel Hum Definition
%
Wind Dir Definition
10's deg

Wind Spd Definition
km/h
Visibility Definition
km
Stn Press Definition
kPa
Hmdx Definition


Wind Chill Definition


Weather Definition


TIME
00:00 Legend Double Dagger -17.5 -20.0 81 35 4 16.1 100.66   -21 Snow
01:00 Legend Double Dagger -16.6 -19.0 82 32 3 6.4 100.70   -19 Snow,Fog
02:00 Legend Double Dagger -15.8 -18.1 83 36 1 1.0 100.72   -17 Snow,Fog
03:00 Legend Double Dagger -15.1 -17.4 83 24 6 16.1 100.77   -19 Snow
04:00 Legend Double Dagger -15.2 -17.5 83 24 8 8.1 100.80   -21 Snow,Fog
05:00 Legend Double Dagger -15.2 -17.5 83 36 3 24.1 100.79   -17 Snow
06:00 Legend Double Dagger -15.0 -17.1 84 12 9 24.1 100.81   -21 Snow
07:00 Legend Double Dagger -14.5 -16.6 84 12 13 24.1 100.81   -22 Snow
08:00 Legend Double Dagger -13.9 -15.9 85 12 14 12.9 100.83   -21 Snow
09:00 Legend Double Dagger -13.0 -15.0 85 14 11 16.1 100.86   -19 Snow
10:00 Legend Double Dagger -13.6 -15.6 85 13 14 4.0 100.87   -21 Snow,Fog
11:00 Legend Double Dagger -13.4 -15.4 85 16 7 16.1 100.89   -18 Ice Crystals
12:00 Legend Double Dagger -12.4 -14.3 86 20 14 24.1 100.90   -19 Ice Crystals
13:00 Legend Double Dagger -12.2 -14.1 86 20 9 24.1 100.95   -17 Ice Crystals
14:00 Legend Double Dagger -11.7 -13.5 87 19 14 24.1 100.95   -19 Ice Crystals
15:00 Legend Double Dagger -11.6 -13.4 87 18 13 22.5 100.98   -18 Ice Crystals
16:00 Legend Double Dagger -10.1 -11.7 88 19 14 24.1 100.99   -17 Ice Crystals
17:00 Legend Double Dagger -9.5 -11.0 89 18 25 24.1 101.00   -18 Snow
18:00 Legend Double Dagger -9.2 -10.7 89 19 28 24.1 100.99   -18 Snow
19:00 Legend Double Dagger -8.8 -10.3 89 19 26 16.1 100.98   -17 Snow
20:00 Legend Double Dagger -8.7 -10.1 90 20 33 19.3 100.95   -18 Snow
21:00 Legend Double Dagger -9.1 -10.6 89 20 32 24.1 100.95   -19 Snow,Blowing Snow
22:00 Legend Double Dagger -9.4 -10.9 89 20 34 24.1 100.96   -19 Snow,Blowing Snow
23:00 Legend Double Dagger -9.3 -10.8 89 19 39 16.1 100.97   -20 Snow,Blowing Snow

Notes on Data Quality.

Legend

  • E = Estimated
  • M = Missing
  • NA = Not Available
  • ‡ = Partner data that is not subject to review by the National Climate Archives
Date modified: